Location: Artiguedieu
(43.5000°N, 0.5454°E)
Time: 20:19:58
(UTC+00:00)

Vanguard 1 - Pass Details

Date: 31 July 2021
Orbit: 652 x 3831 km, 34.3° (Epoch: 19 September)

Event Time Altitude Azimuth Distance (km) Brightness Sun altitude
Rises 12:47:44 0° 255° (WSW) 3,369 13.1 63.0°
Reaches altitude 10° 12:49:53 10° 247° (WSW) 2,633 12.7 62.9°
Maximum altitude 12:55:46 44° 177° (S) 1,714 12.7 62.4°
Drops below altitude 10° 13:05:54 10° 110° (ESE) 4,487 13.5 61.5°
Sets 13:10:47 0° 106° (ESE) 6,036 14.0 61.0°
